[[{"header":{"parameterUnit":"m.s-1","parameterCategory":1,"la1":30.2991,"la2":30.254,"lo1":-89.0895,"lo2":-89.0444,"dy":0.0017,"dx":0.0017,"nx":28,"ny":28,"refTime":"2024-03-10T21:00:00:Z","depth":0,"parameterNumber":2,"parameterNumberName":"U-component_of_WINDS"},"data":[0,0,0,0,0,0,0,0,0,0,0,0,0,0,0,0,0,0,0,0,0,0,0,0,0,0,0,0,0,0,0,0,0,0,0,0,0,0,0,0,0,0,0,0,0,0,0,0,0,0,0,0,0,0,0,0,0,0,-2.0291,-2.029,0,-2.0226,-2.0226,-2.0225,-2.0096,-2.0093,-2.0091,-2.0088,-2.0027,-2.0028,-2.0028,0,0,0,0,0,0,0,0,0,0,0,0,0,-2.0308,-2.0308,-2.0291,-2.029,-2.0289,-2.0226,-2.0226,-2.0225,-2.0096,-2.0093,-2.009,-2.0087,-2.0027,-2.0027,-2.0028,0,0,0,0,0,0,0,0,0,0,0,0,0,-2.0278,-2.0308,-2.0291,-2.0217,-2.021,-2.0227,-2.0225,-2.0224,-2.0097,-2.0093,-2.0089,-2.0086,-2.0026,-2.0027,-2.0028,-2.0112,0,0,-2.0032,-2.0032,0,0,0,0,0,0,0,0,-2.028,-2.0277,-2.0229,-2.0222,-2.0214,-2.0165,-2.0209,-2.0187,-2.0098,-2.014,-2.0088,-2.0084,-2.0076,-2.0073,-2.0069,-2.0109,-2.0107,-2.0032,-2.0033,-2.0033,-2.0033,0,0,0,0,0,0,0,-2.0282,-2.0279,-2.0265,-2.0228,-2.022,-2.0189,-2.0181,-2.0204,-2.0131,-2.0136,-2.0127,-2.0121,-2.0072,-2.0069,-2.0067,-2.0106,-2.0032,-2.0033,-2.0034,-2.0034,-2.0215,-2.0219,0,0,0,0,0,0,-2.0294,-2.0282,-2.0267,-2.0263,-2.0238,-2.0192,-2.0183,-2.0185,-2.013,-2.0118,-2.0124,-2.0115,-2.0069,-2.0066,-2.0064,-2.0161,-2.0033,-2.0034,-2.0035,-2.0211,-2.0216,-2.022,0,0,0,0,0,0,-2.0295,-2.0294,-2.027,-2.027,-2.0265,-2.0196,-2.02,-2.0186,-2.0183,-2.0121,-2.0107,-2.0134,-2.0066,-2.0063,-2.0102,-2.0157,-2.0035,-2.0036,-2.0206,-2.0212,-2.0218,-2.0354,0,0,0,0,0,0,-2.0296,-2.0295,-2.0325,-2.0272,-2.0265,-2.0307,-2.0203,-2.0187,-2.0184,-2.0172,-2.0127,-2.0116,-2.0062,-2.0101,-2.0103,-2.0156,-2.0037,-2.02,-2.0209,-2.0216,-2.0344,-2.0364,-2.0381,0,0,0,0,0,-2.0297,-2.0366,-2.0327,-2.0326,-2.0301,-2.031,-2.0307,-2.0243,-2.0189,-2.022,-2.0181,-2.0117,-2.0151,-2.0106,-2.0107,-2.0162,-2.0197,-2.0206,-2.0215,-2.0336,-2.036,-2.038,0,0,0,0,0,0,-2.0428,-2.0357,-2.0313,-2.0367,-2.0346,-2.0289,-2.0325,-2.027,-2.0264,-2.0253,-2.0175,-2.0166,-2.0216,-2.0192,-2.0144,-2.0242,-2.0164,-2.0174,-2.0255,-2.0277,-2.0295,-2.0301,-2.0038,0,0,0,0,0,-2.0463,-2.0475,-2.0413,-2.0467,-2.0458,-2.0394,-2.0396,-2.0348,-2.0323,-2.0314,-2.0277,-2.0257,-2.0263,-2.0269,-2.0271,-2.034,-2.033,-2.0378,-2.0397,-2.0412,-2.0422,-2.046,-2.0481,-2.0251,-2.025,-2.025,0,0,-2.0536,-2.0499,-2.0511,-2.0492,-2.047,-2.0487,-2.0387,-2.0408,-2.042,-2.0318,-2.0352,-2.0325,-2.0298,-2.0353,-2.0375,-2.0335,-2.0484,-2.0424,-2.0437,-2.0438,-2.0472,-2.0494,-2.0513,-2.0257,-2.0256,-2.0255,0,0,-2.0676,-2.0649,-2.0691,-2.0671,-2.0639,-2.0596,-2.0607,-2.0558,-2.0536,-2.0569,-2.0494,-2.0508,-2.0519,-2.0503,-2.0497,-2.0635,-2.0578,-2.0638,-2.0734,-2.0772,-2.079,-2.0806,-2.0858,-2.0877,-2.0648,-2.0648,-2.0649,0,-2.0771,-2.0791,-2.072,-2.0747,-2.0742,-2.0649,-2.0693,-2.0678,-2.0649,-2.0648,-2.0603,-2.0617,-2.0591,-2.0643,-2.0677,-2.0674,-2.0686,-2.0643,-2.0793,-2.0808,-2.0822,-2.087,-2.089,-2.0656,-2.0655,-2.0654,-2.0654,0,-2.0911,-2.0926,-2.0964,-2.0938,-2.0937,-2.0973,-2.0909,-2.0917,-2.0871,-2.0834,-2.0871,-2.0837,-2.0832,-2.084,-2.0795,-2.0887,-2.0863,-2.0807,-2.0727,-2.0853,-2.0897,-2.0915,-2.0667,-2.0664,-2.0662,-2.066,0,0,-2.1131,-2.1066,-2.1082,-2.107,-2.1028,-2.104,-2.1072,-2.1066,-2.1076,-2.106,-2.1086,-2.1099,-2.1048,-2.1041,-2.0993,-2.1026,-2.1141,-2.0966,-2.0964,-2.1001,-2.1243,-2.1286,-2.1309,-2.1102,-2.1105,-2.1108,-2.1246,0,-2.1264,-2.1314,-2.1252,-2.1316,-2.1331,-2.1245,-2.1273,-2.1253,-2.1219,-2.1229,-2.1192,-2.1203,-2.1133,-2.1129,-2.1157,-2.1121,-2.1188,-2.111,-2.1129,-2.113,-2.1139,-2.1331,-2.1377,-2.1508,-2.1262,-2.1265,-2.1267,0,-2.1425,-2.1416,-2.1482,-2.1439,-2.1443,-2.1469,-2.146,-2.147,-2.1445,-2.1419,-2.1413,-2.1356,-2.1387,-2.1309,-2.1353,-2.1301,-2.1305,-2.1289,-2.1292,-2.1292,-2.1207,-2.1339,-2.1548,-2.1569,-2.1293,-2.1291,-2.1289,0,-2.1582,-2.1587,-2.1627,-2.1619,-2.1569,-2.1591,-2.1571,-2.1543,-2.1544,-2.1537,-2.1537,-2.1535,-2.1534,-2.1534,-2.1479,-2.1427,-2.153,-2.1447,-2.1511,-2.1513,-2.1538,-2.1537,-2.1753,-2.1538,-2.1538,-2.1538,-2.1537,0,-2.1738,-2.1782,-2.1697,-2.1722,-2.177,-2.17,-2.175,-2.1722,-2.1698,-2.1718,-2.1643,-2.1664,-2.1589,-2.1603,-2.156,-2.1604,-2.1604,-2.1585,-2.1574,-2.1593,-2.1595,-2.1595,-2.1585,-2.1543,-2.1542,-2.1541,-2.154,0,-2.1921,-2.1866,-2.1905,-2.1855,-2.1843,-2.1881,-2.1839,-2.1862,-2.1824,-2.185,-2.1853,-2.1794,-2.1807,-2.1752,-2.1754,-2.1726,-2.1793,-2.1765,-2.1801,-2.1793,-2.1861,-2.1856,-2.2086,-2.2113,-2.188,-2.1882,-2.1884,0,-2.2024,-2.2056,-2.201,-2.2018,-2.2002,-2.2015,-2.2016,-2.1949,-2.1954,-2.193,-2.1956,-2.1962,-2.1963,-2.1988,-2.1947,-2.195,-2.1922,-2.2003,-2.1922,-2.1942,-2.1926,-2.1926,-2.193,-2.202,-2.2023,-2.2025,-2.2027,0,-2.2215,-2.2186,-2.219,-2.2185,-2.2188,-2.2182,-2.217,-2.2181,-2.2109,-2.2118,-2.213,-2.2131,-2.2134,-2.2142,-2.2137,-2.2119,-2.2063,-2.2053,-2.2068,-2.2088,-2.2109,-2.2101,-2.1848,-2.2048,-2.2046,-2.2044,-2.2043,-2.2042,-2.2362,-2.2387,-2.2359,-2.2367,-2.2351,-2.2343,-2.2362,-2.2327,-2.2335,-2.2332,-2.2292,-2.2312,-2.229,-2.2277,-2.2265,-2.2281,-2.2243,-2.2265,-2.2271,-2.2277,-2.229,-2.2105,-2.2279,-2.2279,-2.2278,-2.2277,-2.2277,0,-2.255,-2.2528,-2.2535,-2.2522,-2.2529,-2.2473,-2.2458,-2.2468,-2.2486,-2.247,-2.2473,-2.2488,-2.2496,-2.2456,-2.2459,-2.248,-2.2455,-2.2484,-2.2482,-2.248,-2.2322,-2.231,-2.2504,-2.2504,-2.2504,-2.2504,-2.2504,-2.2504,-2.2648,-2.2689,-2.2658,-2.2692,-2.267,-2.2688,-2.2684,-2.2677,-2.2664,-2.2683,-2.2689,-2.2663,-2.2638,-2.2639,-2.2646,-2.2634,-2.264,-2.2678,-2.2658,-2.2512,-2.249,-2.2469,-2.2457,-2.2679,-2.268,-2.2814,-2.2815,-2.2816]},{"header":{"parameterUnit":"m.s-1","parameterCategory":1,"la1":30.2991,"la2":30.254,"lo1":-89.0895,"lo2":-89.0444,"dy":0.0017,"dx":0.0017,"nx":28,"ny":28,"refTime":"2024-03-10T21:00:00:Z","depth":0,"parameterNumber":3,"parameterNumberName":"V-component_of_WINDS"},"data":[0,0,0,0,0,0,0,0,0,0,0,0,0,0,0,0,0,0,0,0,0,0,0,0,0,0,0,0,0,0,0,0,0,0,0,0,0,0,0,0,0,0,0,0,0,0,0,0,0,0,0,0,0,0,0,0,0,0,0.7568,0.7568,0,0.7515,0.7515,0.7514,0.7495,0.7495,0.7495,0.7495,0.7438,0.7436,0.7434,0,0,0,0,0,0,0,0,0,0,0,0,0,0.7649,0.7647,0.7568,0.7568,0.7567,0.7516,0.7515,0.7514,0.7495,0.7495,0.7495,0.7495,0.7438,0.7436,0.7434,0,0,0,0,0,0,0,0,0,0,0,0,0,0.7606,0.7647,0.7568,0.7551,0.7549,0.7516,0.7515,0.7514,0.7495,0.7495,0.7495,0.7496,0.7439,0.7436,0.7434,0.7412,0,0,0.7426,0.7425,0,0,0,0,0,0,0,0,0.7609,0.7604,0.7554,0.7552,0.755,0.7512,0.7522,0.748,0.7495,0.7515,0.7495,0.7496,0.7462,0.7457,0.7447,0.741,0.7407,0.7426,0.7424,0.7423,0.7422,0,0,0,0,0,0,0,0.7612,0.7606,0.7547,0.7554,0.7551,0.7545,0.7539,0.7514,0.7488,0.7514,0.7512,0.7506,0.7461,0.7449,0.7445,0.7406,0.7426,0.7424,0.7422,0.7421,0.7348,0.7348,0,0,0,0,0,0,0.7618,0.7608,0.7549,0.7546,0.7581,0.7543,0.7537,0.7524,0.7488,0.7483,0.7506,0.7506,0.7454,0.7448,0.7443,0.7415,0.7423,0.7421,0.7419,0.7349,0.7348,0.7348,0,0,0,0,0,0,0.762,0.7613,0.7551,0.7577,0.7568,0.7542,0.7527,0.7523,0.7511,0.7482,0.7477,0.75,0.7454,0.7447,0.742,0.7413,0.742,0.7417,0.7349,0.7349,0.7348,0.736,0,0,0,0,0,0,0.7622,0.7614,0.7606,0.7577,0.7567,0.753,0.7527,0.7521,0.7507,0.7506,0.7475,0.747,0.7453,0.7424,0.7418,0.741,0.7415,0.735,0.7349,0.7348,0.736,0.736,0.736,0,0,0,0,0,0.7625,0.7611,0.7606,0.7599,0.7557,0.753,0.7524,0.7507,0.7507,0.7498,0.748,0.7471,0.7415,0.7422,0.7414,0.7405,0.735,0.7349,0.7348,0.736,0.736,0.736,0,0,0,0,0,0,0.7639,0.7607,0.7601,0.7577,0.7556,0.7527,0.7515,0.7507,0.7485,0.7485,0.7463,0.7456,0.7431,0.7415,0.7423,0.7382,0.7382,0.738,0.7393,0.7393,0.7393,0.7396,0.7413,0,0,0,0,0,0.7639,0.7621,0.7593,0.7575,0.7565,0.7542,0.7529,0.7518,0.7495,0.7486,0.7466,0.7443,0.742,0.7406,0.7384,0.7358,0.735,0.7348,0.7348,0.7348,0.7346,0.733,0.7329,0.7345,0.7345,0.7345,0,0,0.764,0.762,0.7609,0.7577,0.756,0.754,0.7535,0.7514,0.7499,0.7483,0.7457,0.7441,0.7414,0.7388,0.7375,0.7374,0.734,0.7347,0.7347,0.7345,0.7329,0.7328,0.7326,0.7345,0.7345,0.7345,0,0,0.763,0.7613,0.7596,0.7579,0.7554,0.7539,0.7535,0.7506,0.7495,0.7469,0.7457,0.7438,0.74,0.7381,0.7366,0.735,0.7341,0.7344,0.7342,0.7327,0.7326,0.7325,0.7318,0.7316,0.7342,0.7342,0.7342,0,0.7633,0.7604,0.7587,0.7568,0.7553,0.7539,0.7521,0.7505,0.7473,0.7463,0.7463,0.7414,0.7395,0.7365,0.7361,0.735,0.7343,0.7347,0.7328,0.7326,0.7325,0.7318,0.7316,0.7342,0.7342,0.7342,0.7342,0,0.7609,0.7589,0.7577,0.7548,0.7533,0.7514,0.7493,0.7479,0.7469,0.7454,0.7427,0.7404,0.7377,0.7369,0.7358,0.7336,0.7336,0.7332,0.7331,0.7324,0.7317,0.7315,0.7343,0.7343,0.7343,0.7342,0,0,0.7605,0.7568,0.7564,0.755,0.7521,0.7505,0.7485,0.746,0.7448,0.7426,0.7408,0.7377,0.7373,0.7356,0.7344,0.7331,0.7319,0.7328,0.7327,0.7327,0.7292,0.7295,0.7292,0.7313,0.7312,0.7312,0.7294,0,0.7591,0.7556,0.754,0.7511,0.7492,0.7479,0.7461,0.7441,0.7426,0.7407,0.739,0.7368,0.7365,0.7355,0.7342,0.7323,0.7311,0.7324,0.7294,0.7294,0.7301,0.7289,0.7291,0.7276,0.7291,0.7291,0.7291,0,0.7569,0.7549,0.7519,0.7492,0.7484,0.7468,0.7444,0.7426,0.7402,0.7392,0.7375,0.7363,0.734,0.7342,0.731,0.7319,0.7306,0.7295,0.7293,0.7289,0.7291,0.7283,0.727,0.7267,0.7287,0.7287,0.7287,0,0.7569,0.7534,0.7511,0.75,0.7469,0.7458,0.7444,0.7421,0.7407,0.7385,0.7375,0.7351,0.7337,0.7318,0.7299,0.7302,0.7269,0.7269,0.7259,0.7259,0.7251,0.7252,0.7235,0.7245,0.7245,0.7245,0.7245,0,0.7554,0.7535,0.751,0.7496,0.7475,0.7458,0.7437,0.7422,0.7402,0.7384,0.737,0.7353,0.733,0.731,0.7296,0.7271,0.7265,0.7255,0.7251,0.7256,0.7257,0.7246,0.7246,0.7244,0.7244,0.7244,0.7244,0,0.7549,0.7532,0.7506,0.7479,0.7472,0.7457,0.7433,0.7419,0.7404,0.7381,0.7375,0.7351,0.7326,0.7306,0.7274,0.7264,0.7238,0.7234,0.7246,0.7244,0.7234,0.7235,0.7209,0.7204,0.7219,0.7219,0.7218,0,0.754,0.7526,0.7498,0.7485,0.7472,0.7452,0.7438,0.742,0.7405,0.7378,0.7366,0.7341,0.732,0.7281,0.726,0.7235,0.723,0.7223,0.7226,0.7231,0.7229,0.7229,0.7227,0.7222,0.7222,0.7222,0.7222,0,0.7526,0.7518,0.7499,0.7476,0.7459,0.744,0.7421,0.7411,0.739,0.7374,0.7349,0.7333,0.7301,0.7276,0.7249,0.7233,0.7223,0.7221,0.7217,0.7221,0.7228,0.7223,0.7244,0.7222,0.7222,0.7222,0.7222,0.7222,0.7518,0.7505,0.7483,0.7461,0.7445,0.7427,0.7412,0.7396,0.7376,0.7349,0.7339,0.7314,0.729,0.7253,0.7238,0.7217,0.7216,0.7211,0.7209,0.7208,0.7208,0.7233,0.7212,0.7212,0.7212,0.7212,0.7212,0,0.7502,0.7488,0.7468,0.7442,0.7425,0.7419,0.7397,0.7383,0.7361,0.7341,0.7321,0.7293,0.7268,0.7246,0.722,0.7208,0.7203,0.7202,0.7202,0.7198,0.7211,0.7216,0.7206,0.7206,0.7206,0.7206,0.7206,0.7206,0.7492,0.7469,0.7459,0.7427,0.7412,0.7388,0.7376,0.7359,0.7343,0.7313,0.7293,0.7279,0.7257,0.723,0.7207,0.7201,0.7192,0.7192,0.7184,0.7196,0.7197,0.7198,0.7203,0.719,0.719,0.7173,0.7173,0.7173]}]]